Norbank — PGIS — position and weather

sailwx.info

Track history (hours):
 
Tides and Currents Weather Stations Pressure Air Temp Water Temp Dewpoint Dewpoint Depression Visibility Wind Speed Wind Dir Waves Ship Positions

Norbank

Operator: P & O Ferries

Last reported at 2014-Jul-23 14:33 UTC. Time now 2014-Jul-23 16:05 UTC.
Position N 53°32' W 003°10'.

Length 167 m; draft 5.8 m.

Type: Ship (hazmat cat A). MMSI: 246213000.

Date/timePositionNaut miles runAvg speedWind from/ knotsBaromVisibWave heightAir tempDewpointWater temp
2014-Jul-23 14:33N 53°32' W 003°10'1716.7
2014-Jul-23 13:34N 53°31' W 003°38'1817.8
2014-Jul-23 12:34N 53°34' W 004°08'1717.1
2014-Jul-23 11:33N 53°36' W 004°37'2118.0
2014-Jul-23 10:23N 53°31' W 005°11'2019.3
2014-Jul-23 09:21N 53°25' W 005°43'9 1.5
2014-Jul-23 03:15N 53°22' W 005°58'1114.6
2014-Jul-23 02:32N 53°25' W 005°40'1515.1
2014-Jul-23 01:34N 53°29' W 005°17'2217.4
2014-Jul-23 00:17N 53°33' W 004°40'2018.1
2014-Jul-22 23:09N 53°33' W 004°06'2817.1
2014-Jul-22 21:32N 53°32' W 003°19'12 2.2
2014-Jul-22 16:17N 53°27' W 003°01'0 0.6
2014-Jul-22 15:32N 53°27' W 003°01'6 5.6
2014-Jul-22 14:31N 53°31' W 003°07'1515.3
2014-Jul-22 13:33N 53°31' W 003°32'1616.4
2014-Jul-22 12:34N 53°33' W 003°59'1817.9
2014-Jul-22 11:34N 53°36' W 004°29'17 1.7
2014-Jul-22 01:16N 53°31' W 004°57'1616.7
2014-Jul-22 00:20N 53°34' W 004°31'1617.3
2014-Jul-21 23:23N 53°34' W 004°03'1417.2
2014-Jul-21 22:33N 53°33' W 003°40'1717.1
2014-Jul-21 21:33N 53°32' W 003°11'7 7.4
2014-Jul-21 20:33N 53°27' W 003°01'0 1.7
2014-Jul-21 20:18N 53°27' W 003°01'0 0.0
2014-Jul-21 19:33N 53°27' W 003°01'0 0.0
2014-Jul-21 18:32N 53°27' W 003°01'0 0.0
2014-Jul-21 17:26N 53°27' W 003°01'0 0.0
2014-Jul-21 16:28N 53°27' W 003°01'0 0.0
2014-Jul-21 13:21N 53°27' W 003°01'0 0.0
2014-Jul-21 11:26N 53°27' W 003°01'0 0.0
2014-Jul-21 10:17N 53°27' W 003°01'0 0.0
2014-Jul-21 09:31N 53°27' W 003°01'6 0.8
2014-Jul-21 02:27N 53°32' W 003°08'1718.8
2014-Jul-21 01:33N 53°31' W 003°36'1817.9
2014-Jul-21 00:33N 53°34' W 004°06'8 0.3
2014-Jul-19 23:33N 53°34' W 004°19'1616.4
2014-Jul-19 22:33N 53°34' W 003°51'1716.8
2014-Jul-19 21:34N 53°32' W 003°23'14 9.9
2014-Jul-19 20:08N 53°27' W 003°01'0 0.3
2014-Jul-19 18:24N 53°27' W 003°01'6 1.5
2014-Jul-19 14:25N 53°32' W 003°08'1720.2
2014-Jul-19 13:33N 53°31' W 003°37'1918.8
2014-Jul-19 12:33N 53°34' W 004°08'12 1.0
2014-Jul-19 00:08N 53°34' W 004°29'1514.6
2014-Jul-18 23:06N 53°33' W 004°03'915.9
2014-Jul-18 22:30N 53°33' W 003°47'1516.0
2014-Jul-18 21:33N 53°32' W 003°22'7 1.1
2014-Jul-18 14:33N 53°32' W 003°10'2020.0
2014-Jul-18 13:33N 53°31' W 003°43'1918.8
2014-Jul-18 12:33N 53°34' W 004°14'60 6.3
2014-Jul-18 03:06N 53°23' W 005°53'6517.3
2014-Jul-17 23:21N 53°33' W 004°05'1417.8
2014-Jul-17 22:34N 53°33' W 003°42'1817.6
2014-Jul-17 21:33N 53°31' W 003°12'8 6.6
2014-Jul-17 20:22N 53°27' W 003°01'0 0.5
2014-Jul-17 19:30N 53°27' W 003°01'0 0.0
2014-Jul-17 18:29N 53°27' W 003°01'0 0.0
2014-Jul-17 17:20N 53°27' W 003°01'0 0.0
2014-Jul-17 16:28N 53°27' W 003°01'0 0.5
2014-Jul-17 15:33N 53°27' W 003°01'7 6.9
2014-Jul-17 14:34N 53°32' W 003°09'1817.8
2014-Jul-17 13:34N 53°31' W 003°39'1717.1
2014-Jul-17 12:34N 53°34' W 004°08'8 0.7
2014-Jul-17 00:16N 53°34' W 004°22'1116.0
2014-Jul-16 23:33N 53°34' W 004°03'1616.3
2014-Jul-16 22:33N 53°33' W 003°35'1615.7
2014-Jul-16 21:33N 53°32' W 003°09'6 2.8
2014-Jul-16 19:16N 53°27' W 003°01'0 0.0
2014-Jul-16 18:06N 53°27' W 003°01'7 1.8
2014-Jul-16 14:33N 53°32' W 003°09'1716.9
2014-Jul-16 13:33N 53°31' W 003°38'1616.2
2014-Jul-16 12:33N 53°34' W 004°05'2 0.2
2014-Jul-15 23:32N 53°33' W 004°01'1818.1
2014-Jul-15 22:33N 53°33' W 003°31'1515.4
2014-Jul-15 21:33N 53°30' W 003°06'4 4.4
2014-Jul-15 20:33N 53°27' W 003°01'0 0.4
2014-Jul-15 19:32N 53°27' W 003°01'8 1.6
2014-Jul-15 14:30N 53°31' W 003°13'1718.1
2014-Jul-15 13:33N 53°32' W 003°42'1919.3
2014-Jul-15 12:33N 53°35' W 004°14'10 0.7
2014-Jul-14 23:09N 53°33' W 003°58'1016.6
2014-Jul-14 22:33N 53°33' W 003°41'1615.9
2014-Jul-14 21:32N 53°31' W 003°14'4 0.2
2014-Jul-14 03:31N 53°32' W 003°08'1414.8
2014-Jul-14 02:33N 53°31' W 003°32'1414.2
2014-Jul-14 01:34N 53°33' W 003°56'1414.2
2014-Jul-14 00:34N 53°35' W 004°19'  
Track history (hours):
 
Tides and Currents Weather Stations Pressure Air Temp Water Temp Dewpoint Dewpoint Depression Visibility Wind Speed Wind Dir Waves Ship Positions

Norbank

Operator: P & O Ferries

Last reported at 2014-Jul-23 14:33 UTC. Time now 2014-Jul-23 16:05 UTC.
Position N 53°32' W 003°10'.

Length 167 m; draft 5.8 m.

Type: Ship (hazmat cat A). MMSI: 246213000.

Date/timePositionNaut miles runAvg speedWind from/ knotsBaromVisibWave heightAir tempDewpointWater temp
2014-Jul-23 14:33N 53°32' W 003°10'1716.7
2014-Jul-23 13:34N 53°31' W 003°38'1817.8
2014-Jul-23 12:34N 53°34' W 004°08'1717.1
2014-Jul-23 11:33N 53°36' W 004°37'2118.0
2014-Jul-23 10:23N 53°31' W 005°11'2019.3
2014-Jul-23 09:21N 53°25' W 005°43'9 1.5
2014-Jul-23 03:15N 53°22' W 005°58'1114.6
2014-Jul-23 02:32N 53°25' W 005°40'1515.1
2014-Jul-23 01:34N 53°29' W 005°17'2217.4
2014-Jul-23 00:17N 53°33' W 004°40'2018.1
2014-Jul-22 23:09N 53°33' W 004°06'2817.1
2014-Jul-22 21:32N 53°32' W 003°19'12 2.2
2014-Jul-22 16:17N 53°27' W 003°01'0 0.6
2014-Jul-22 15:32N 53°27' W 003°01'6 5.6
2014-Jul-22 14:31N 53°31' W 003°07'1515.3
2014-Jul-22 13:33N 53°31' W 003°32'1616.4
2014-Jul-22 12:34N 53°33' W 003°59'1817.9
2014-Jul-22 11:34N 53°36' W 004°29'17 1.7
2014-Jul-22 01:16N 53°31' W 004°57'1616.7
2014-Jul-22 00:20N 53°34' W 004°31'1617.3
2014-Jul-21 23:23N 53°34' W 004°03'1417.2
2014-Jul-21 22:33N 53°33' W 003°40'1717.1
2014-Jul-21 21:33N 53°32' W 003°11'7 7.4
2014-Jul-21 20:33N 53°27' W 003°01'0 1.7
2014-Jul-21 20:18N 53°27' W 003°01'0 0.0
2014-Jul-21 19:33N 53°27' W 003°01'0 0.0
2014-Jul-21 18:32N 53°27' W 003°01'0 0.0
2014-Jul-21 17:26N 53°27' W 003°01'0 0.0
2014-Jul-21 16:28N 53°27' W 003°01'0 0.0
2014-Jul-21 13:21N 53°27' W 003°01'0 0.0
2014-Jul-21 11:26N 53°27' W 003°01'0 0.0
2014-Jul-21 10:17N 53°27' W 003°01'0 0.0
2014-Jul-21 09:31N 53°27' W 003°01'6 0.8
2014-Jul-21 02:27N 53°32' W 003°08'1718.8
2014-Jul-21 01:33N 53°31' W 003°36'1817.9
2014-Jul-21 00:33N 53°34' W 004°06'8 0.3
2014-Jul-19 23:33N 53°34' W 004°19'1616.4
2014-Jul-19 22:33N 53°34' W 003°51'1716.8
2014-Jul-19 21:34N 53°32' W 003°23'14 9.9
2014-Jul-19 20:08N 53°27' W 003°01'0 0.3
2014-Jul-19 18:24N 53°27' W 003°01'6 1.5
2014-Jul-19 14:25N 53°32' W 003°08'1720.2
2014-Jul-19 13:33N 53°31' W 003°37'1918.8
2014-Jul-19 12:33N 53°34' W 004°08'12 1.0
2014-Jul-19 00:08N 53°34' W 004°29'1514.6
2014-Jul-18 23:06N 53°33' W 004°03'915.9
2014-Jul-18 22:30N 53°33' W 003°47'1516.0
2014-Jul-18 21:33N 53°32' W 003°22'7 1.1
2014-Jul-18 14:33N 53°32' W 003°10'2020.0
2014-Jul-18 13:33N 53°31' W 003°43'1918.8
2014-Jul-18 12:33N 53°34' W 004°14'60 6.3
2014-Jul-18 03:06N 53°23' W 005°53'6517.3
2014-Jul-17 23:21N 53°33' W 004°05'1417.8
2014-Jul-17 22:34N 53°33' W 003°42'1817.6
2014-Jul-17 21:33N 53°31' W 003°12'8 6.6
2014-Jul-17 20:22N 53°27' W 003°01'0 0.5
2014-Jul-17 19:30N 53°27' W 003°01'0 0.0
2014-Jul-17 18:29N 53°27' W 003°01'0 0.0
2014-Jul-17 17:20N 53°27' W 003°01'0 0.0
2014-Jul-17 16:28N 53°27' W 003°01'0 0.5
2014-Jul-17 15:33N 53°27' W 003°01'7 6.9
2014-Jul-17 14:34N 53°32' W 003°09'1817.8
2014-Jul-17 13:34N 53°31' W 003°39'1717.1
2014-Jul-17 12:34N 53°34' W 004°08'8 0.7
2014-Jul-17 00:16N 53°34' W 004°22'1116.0
2014-Jul-16 23:33N 53°34' W 004°03'1616.3
2014-Jul-16 22:33N 53°33' W 003°35'1615.7
2014-Jul-16 21:33N 53°32' W 003°09'6 2.8
2014-Jul-16 19:16N 53°27' W 003°01'0 0.0
2014-Jul-16 18:06N 53°27' W 003°01'7 1.8
2014-Jul-16 14:33N 53°32' W 003°09'1716.9
2014-Jul-16 13:33N 53°31' W 003°38'1616.2
2014-Jul-16 12:33N 53°34' W 004°05'2 0.2
2014-Jul-15 23:32N 53°33' W 004°01'1818.1
2014-Jul-15 22:33N 53°33' W 003°31'1515.4
2014-Jul-15 21:33N 53°30' W 003°06'4 4.4
2014-Jul-15 20:33N 53°27' W 003°01'0 0.4
2014-Jul-15 19:32N 53°27' W 003°01'8 1.6
2014-Jul-15 14:30N 53°31' W 003°13'1718.1
2014-Jul-15 13:33N 53°32' W 003°42'1919.3
2014-Jul-15 12:33N 53°35' W 004°14'10 0.7
2014-Jul-14 23:09N 53°33' W 003°58'1016.6
2014-Jul-14 22:33N 53°33' W 003°41'1615.9
2014-Jul-14 21:32N 53°31' W 003°14'4 0.2
2014-Jul-14 03:31N 53°32' W 003°08'1414.8
2014-Jul-14 02:33N 53°31' W 003°32'1414.2
2014-Jul-14 01:34N 53°33' W 003°56'1414.2
2014-Jul-14 00:34N 53°35' W 004°19'  

Dump ship's entire track history